sat.trackr.live / text

‹ back to catalog

STARLINK-35457

NORAD 66433 · 2025-259M

PAYLOAD ACTIVE UNKNOWN

§ Identity

Operator
Country
US
Launch date
2025-11-11
Launch site
AFETR
Launch vehicle
Mass (kg)
RCS (m²)

Purposes: comms

External: N2YO · Heavens-Above · Gunter

§ Orbital elements

Epoch: 2026-09-20T16:00:01.119168Z

Period
94.27 min
Inclination
42.9976°
Eccentricity
0.0003672
Mean motion
15.27586523 rev/d
Perigee alt
480.5 km
Apogee alt
485.5 km
Semi-major
6,861.2 km
B*
2.9706e-4
RAAN
252.9450°
Arg perigee
261.5927°
Mean anomaly
98.4508°
Rev number
4,931

§ Raw data

STARLINK-354571 66433U 25259M   26263.66667962  .00007923  00000+0  29706-3 0  99992 66433  42.9976 252.9450 0003672 261.5927  98.4508 15.27586523 49313

JSON: /api/v1/satellites/66433 · /tle

For live sub-satellite position, see the globe view (requires WebGL).

§ Visibility from observer

Set your observer location to see the next 7 days of passes ≥ 10°. The values pass through the URL so the page stays shareable.

No JS? Fill the form by hand. The geolocation button needs JavaScript.